BAW461A LEMD-EGLL

Flight info

Callsign BAW461A
Flight time N/A
Altitude 36000
Route SIE N858 DGO N867 NENEM DCT DIDIG UP87 ROXOG
Aircraft B772/H-SDE1E3FGHIJ3J5J6M1M2P2RWXYZ/LB1D1

Departure

Time 2026-05-05 17:20
Airport Adolfo Suárez Madrid–Barajas Airport (LEMD)

Arrival

Time N/A
Airport London Heathrow Airport (EGLL)
Time Latitude Longitude Altitude Speed Heading
2026-05-05 16:50 40.49217 -3.56648 1979 ft 0 kts 271°
2026-05-05 17:06 40.49217 -3.56645 1975 ft 2 kts 271°
2026-05-05 17:06 40.49216 -3.56611 1977 ft 4 kts 271°
2026-05-05 17:07 40.49216 -3.56580 1977 ft 4 kts 280°
2026-05-05 17:07 40.49209 -3.56554 1978 ft 4 kts 321°
2026-05-05 17:07 40.49188 -3.56543 1978 ft 4 kts 357°
2026-05-05 17:07 40.49165 -3.56543 1978 ft 1 kts 360°
2026-05-05 17:08 40.49161 -3.56543 1979 ft 1 kts 360°
2026-05-05 17:13 40.49191 -3.56535 1978 ft 15 kts
2026-05-05 17:13 40.49374 -3.56543 1974 ft 30 kts 359°
2026-05-05 17:13 40.49580 -3.56546 1977 ft 30 kts
2026-05-05 17:13 40.49762 -3.56545 1977 ft 23 kts
2026-05-05 17:14 40.49922 -3.56546 1977 ft 23 kts 359°
2026-05-05 17:14 40.50016 -3.56546 1977 ft 13 kts
2026-05-05 17:14 40.50100 -3.56574 1980 ft 13 kts 307°
2026-05-05 17:14 40.50113 -3.56690 1975 ft 13 kts 270°
2026-05-05 17:15 40.50112 -3.56809 1976 ft 13 kts 271°
2026-05-05 17:15 40.50112 -3.56928 1976 ft 13 kts 269°
2026-05-05 17:15 40.50111 -3.57048 1976 ft 13 kts 270°
2026-05-05 17:15 40.50113 -3.57167 1978 ft 13 kts 270°
2026-05-05 17:16 40.50050 -3.57236 1988 ft 13 kts 186°
2026-05-05 17:16 40.49957 -3.57235 1989 ft 14 kts 179°
2026-05-05 17:16 40.49858 -3.57236 1992 ft 14 kts 181°
2026-05-05 17:16 40.49758 -3.57235 1991 ft 14 kts 181°
2026-05-05 17:17 40.49658 -3.57233 1988 ft 15 kts 176°
2026-05-05 17:17 40.49557 -3.57232 1990 ft 15 kts 179°
2026-05-05 17:17 40.49456 -3.57231 1986 ft 15 kts 180°
2026-05-05 17:17 40.49355 -3.57231 1984 ft 14 kts 180°
2026-05-05 17:18 40.49254 -3.57231 1988 ft 14 kts 180°
2026-05-05 17:18 40.49176 -3.57258 1990 ft 7 kts 245°
2026-05-05 17:18 40.49178 -3.57322 1988 ft 7 kts 272°
2026-05-05 17:18 40.49178 -3.57386 1989 ft 7 kts 269°
2026-05-05 17:19 40.49209 -3.57445 1991 ft 10 kts 334°
2026-05-05 17:19 40.49263 -3.57454 1990 ft 14 kts
2026-05-05 17:19 40.49551 -3.57454 1989 ft 76 kts 359°
2026-05-05 17:19 40.50303 -3.57467 1994 ft 139 kts 360°
2026-05-05 17:20 40.51444 -3.57444 2127 ft 180 kts
2026-05-05 17:20 40.52726 -3.57369 2748 ft 193 kts 355°
2026-05-05 17:20 40.54084 -3.57429 3495 ft 203 kts 354°
2026-05-05 17:20 40.55557 -3.57685 3753 ft 215 kts 332°
2026-05-05 17:21 40.56643 -3.58963 4357 ft 211 kts 306°
2026-05-05 17:21 40.57445 -3.60569 4894 ft 213 kts 304°
2026-05-05 17:21 40.58546 -3.61896 5430 ft 217 kts 324°
2026-05-05 17:22 40.60947 -3.64346 6656 ft 218 kts 317°
2026-05-05 17:22 40.62100 -3.65655 7267 ft 222 kts 317°
2026-05-05 17:22 40.63299 -3.67002 7828 ft 223 kts 320°
2026-05-05 17:22 40.64708 -3.67845 8141 ft 240 kts 352°
2026-05-05 17:23 40.66430 -3.67657 8283 ft 257 kts
2026-05-05 17:23 40.68301 -3.67327 8499 ft 276 kts
2026-05-05 17:23 40.70235 -3.67036 9004 ft 285 kts
2026-05-05 17:23 40.72233 -3.66741 9580 ft 292 kts
2026-05-05 17:24 40.74265 -3.66442 10215 ft 295 kts
2026-05-05 17:24 40.76374 -3.66135 10466 ft 316 kts
2026-05-05 17:24 40.78645 -3.65805 10795 ft 335 kts
2026-05-05 17:24 40.80995 -3.65462 11474 ft 344 kts
2026-05-05 17:25 40.83396 -3.65112 12329 ft 350 kts
2026-05-05 17:25 40.85005 -3.64878 13016 ft 352 kts
2026-05-05 17:25 40.88281 -3.64402 14319 ft 357 kts
2026-05-05 17:25 40.90768 -3.64044 15225 ft 361 kts
2026-05-05 17:26 40.93279 -3.63681 16115 ft 365 kts
2026-05-05 17:26 40.95823 -3.63313 16987 ft 370 kts
2026-05-05 17:26 40.98399 -3.62940 17870 ft 374 kts
2026-05-05 17:26 41.00994 -3.62563 18736 ft 377 kts
2026-05-05 17:27 41.03612 -3.62184 19562 ft 379 kts
2026-05-05 17:27 41.06253 -3.61801 20344 ft 384 kts
2026-05-05 17:27 41.08930 -3.61414 21072 ft 388 kts
2026-05-05 17:27 41.11633 -3.61022 21829 ft 393 kts
2026-05-05 17:28 41.14359 -3.60622 22571 ft 396 kts
2026-05-05 17:28 41.17097 -3.59822 23111 ft 406 kts 15°
2026-05-05 17:28 41.19737 -3.58334 23694 ft 416 kts 20°
2026-05-05 17:28 41.22392 -3.56743 24331 ft 420 kts 19°
2026-05-05 17:29 41.25076 -3.55181 25000 ft 423 kts 18°
2026-05-05 17:29 41.27794 -3.53644 25617 ft 427 kts 18°
2026-05-05 17:29 41.30555 -3.52113 26211 ft 432 kts 17°
2026-05-05 17:29 41.33347 -3.50579 26763 ft 437 kts 17°
2026-05-05 17:30 41.36172 -3.49032 27351 ft 442 kts 17°
2026-05-05 17:30 41.39027 -3.47467 27902 ft 446 kts 17°
2026-05-05 17:30 41.41911 -3.45882 28457 ft 451 kts 17°
2026-05-05 17:30 41.44826 -3.44278 28964 ft 455 kts 17°
2026-05-05 17:31 41.47770 -3.42655 29477 ft 459 kts 17°
2026-05-05 17:31 41.50731 -3.41024 29968 ft 463 kts 17°
2026-05-05 17:31 41.53729 -3.39373 30377 ft 468 kts 17°
2026-05-05 17:31 41.56748 -3.37709 30778 ft 471 kts 17°
2026-05-05 17:32 41.59792 -3.36030 31194 ft 474 kts 17°
2026-05-05 17:32 41.62845 -3.34344 31578 ft 477 kts 17°
2026-05-05 17:32 41.65962 -3.32620 31958 ft 480 kts 17°
2026-05-05 17:32 41.69015 -3.30930 32290 ft 483 kts 17°
2026-05-05 17:33 41.72131 -3.29202 32644 ft 486 kts 17°
2026-05-05 17:33 41.75303 -3.27442 32997 ft 489 kts 18°
2026-05-05 17:33 41.78451 -3.25693 33325 ft 492 kts 18°
2026-05-05 17:33 41.81631 -3.23925 33666 ft 495 kts 18°
2026-05-05 17:34 41.84814 -3.22151 34068 ft 495 kts 18°
2026-05-05 17:34 41.87981 -3.20384 34449 ft 494 kts 18°
2026-05-05 17:34 41.91125 -3.18629 34824 ft 494 kts 18°
2026-05-05 17:34 41.94331 -3.16837 35207 ft 494 kts 18°
2026-05-05 17:35 41.97503 -3.15063 35574 ft 493 kts 18°
2026-05-05 17:35 42.00667 -3.13291 35950 ft 493 kts 19°
2026-05-05 17:35 42.03856 -3.11506 36036 ft 499 kts 19°
2026-05-05 17:36 42.10249 -3.07918 36012 ft 493 kts 19°
2026-05-05 17:36 42.16602 -3.04341 36019 ft 492 kts 19°
2026-05-05 17:37 42.22922 -3.00781 36016 ft 492 kts 19°
2026-05-05 17:37 42.29249 -2.97205 36018 ft 493 kts 19°
2026-05-05 17:38 42.35584 -2.93618 36015 ft 493 kts 19°
2026-05-05 17:38 42.41932 -2.90115 36006 ft 490 kts 14°
2026-05-05 17:39 42.48554 -2.88350 36023 ft 482 kts
2026-05-05 17:39 42.55202 -2.88481 36026 ft 477 kts 353°
2026-05-05 17:40 42.61840 -2.88908 36023 ft 477 kts 353°
2026-05-05 17:40 42.68480 -2.89284 36021 ft 478 kts 354°
2026-05-05 17:41 42.75134 -2.89630 36028 ft 478 kts 354°
2026-05-05 17:41 42.81782 -2.89970 36025 ft 479 kts 354°
2026-05-05 17:42 42.88446 -2.90310 36031 ft 478 kts 354°
2026-05-05 17:42 42.95099 -2.90657 36033 ft 478 kts 354°
2026-05-05 17:43 43.01750 -2.91004 36058 ft 478 kts 354°
2026-05-05 17:43 43.08419 -2.91350 36027 ft 475 kts 354°
2026-05-05 17:44 43.15006 -2.91693 36032 ft 472 kts 354°
2026-05-05 17:44 43.21555 -2.92036 36021 ft 470 kts 354°
2026-05-05 17:45 43.28043 -2.92379 36027 ft 469 kts 354°
2026-05-05 17:45 43.34508 -2.93638 36031 ft 466 kts 343°
2026-05-05 17:46 43.40833 -2.95708 36023 ft 467 kts 344°
2026-05-05 17:46 43.47145 -2.97725 36020 ft 468 kts 344°
2026-05-05 17:47 43.53545 -2.99733 36013 ft 469 kts 344°